Rbgn^[z[y[W
メイン
   新天体発見情報
     Comet C/2017 W2 (Leonard)
投稿するにはまず登録を

スレッド表示 | 古いものから 前のトピック | 次のトピック | 下へ
投稿者 スレッド
佐藤裕久
投稿日時: 2017-12-30 13:49
モデレータ
登録日: 2005-6-12
居住地: 日本
投稿: 2505
オンライン
Comet C/2017 W2 (Leonard)

G. J. Leonardの通報によると、11月26日UT、Mt Lemmonの1.5-m 反射望遠鏡で得たCCD画像から
およそ2.1"のシーイングで彗星を発見した。30秒露出4枚を重ねると10" のコマとp.a.約320°に
約15"の拡散した尾が見える。11月27.5日UT、D. C. FulsのCatalinaスカイサーベイの1.55-m
反射望遠鏡によるフォローアップ観測では、p.a. 315°に5".3の非常に短い尾が見える。12月
14.4日、Mt Lemmonの1.5-m 反射望遠鏡によるD. C. Fulsの追加観測では、p.a. 350°に扇状の
尾が見えた。
小惑星センターのPCCP webpageに公表後、J.-F. Soulier (0.20-m f/4 ニュートン式反射望遠鏡,
Dauban, フランス)の観測では、11月30.2日UT、CCD画像から10"のコマとp.a. 320°に15"の尾を
見つけた。

発見位置は次のとおり、

     2017 UT             R.A. (2000) Decl.       Mag.   Observer
     Nov. 26.45530   10 12 03.71   +18 48 06.4   20.2   Leonard
          26.46047   10 12 03.56   +18 48 04.4   19.9     "
          26.47045   10 12 03.27   +18 48 00.7   20.1     "
          26.48166   10 12 03.00   +18 47 56.1   19.8     "
          26.50055   10 12 02.46   +18 47 49.3   19.7     "
          26.50832   10 12 02.24   +18 47 45.9   19.9     "
          26.51664   10 12 02.02   +18 47 42.4   19.9     "
          26.52468   10 12 01.75   +18 47 40.8   19.7     "

楕円軌道要素と位置推算表は次のとおり、

Orbital elements:
    C/2017 W2 (Leonard)
Epoch 2017 Oct. 14.0 TT = JDT 2458040.5
T 2017 Oct. 31.89234 TT                                 MPCW
q   3.9560247            (2000.0)            P               Q
n   0.01954624     Peri.  168.98669     -0.68691527     -0.02766547
a  13.6487798      Node   312.80844     +0.56857798     +0.60190326
e   0.7101554      Incl.   98.15530     +0.45262180     -0.79808965
P  50.42
From 87 observations 2017 Nov. 26-Dec. 19, mean residual 0".4.

    C/2017 W2 (Leonard)
Epoch 2067 Sept. 22.0 TT = JDT 2476280.5
T 2067 Oct. 5.51859 TT                                  MPCW
q   3.9520702            (2000.0)            P               Q
n   0.01969755     Peri.  168.85899     -0.68640866     -0.02778319
a  13.5787974      Node   312.75317     +0.56766286     +0.60410748
e   0.7089529      Incl.   98.25053     +0.45453496     -0.79641839
P  50.04
From 87 observations 2017 Nov. 26-Dec. 19, mean residual 0".4.

    C/2017 W2 (Leonard)
Epoch 2017 Sept. 4.0 TT = JDT 2458000.5
T 2017 Oct. 31.87221 TT                                 MPCW
q   3.9560349            (2000.0)            P               Q
n   0.01954661     Peri.  168.98339     -0.68691392     -0.02770816
a  13.6486120      Node   312.80850     +0.56854297     +0.60193386
e   0.7101511      Incl.   98.15507     +0.45266782     -0.79806509
P  50.42
From 87 observations 2017 Nov. 26-Dec. 19, mean residual 0".4.

Ephemeris:
    C/2017 W2 (Leonard)
Date    TT    R. A. (2000) Decl.     Delta      r     Elong.  Phase   m1
2017 11 19    10 14 48.4 +19 36 47   3.8663  3.9582    88.1    14.5  19.9
...
2017 12 04    10 08 03.4 +18 00 37   3.6067  3.9634   104.1    14.0  19.8
...
2017 12 12    10 02 21.7 +17 11 48   3.4752  3.9673   113.2    13.2  19.7
...
2017 12 18    09 57 03.5 +16 35 59   3.3827  3.9709   120.3    12.4  19.6
2017 12 19    09 56 05.2 +16 30 04   3.3679  3.9715   121.5    12.2  19.6
2017 12 20    09 55 05.5 +16 24 10   3.3534  3.9721   122.7    12.0  19.6
...
2017 12 26    09 48 35.6 +15 48 54   3.2709  3.9763   130.1    10.9  19.6
...
2018 01 03    09 38 36.0 +15 02 01   3.1761  3.9826   140.3     9.1  19.5
...
2018 01 18    09 16 25.8 +13 33 02   3.0573  3.9966   160.1     4.8  19.4

(CBET 4461、MPEC 2017-Y43)

スレッド表示 | 古いものから 前のトピック | 次のトピック | トップ

投稿するにはまず登録を
 
© 1999 Tsutomu Seki.